TimeMST,TemperatureF,Dew PointF,Humidity,Sea Level PressureIn,VisibilityMPH,Wind Direction,Wind SpeedMPH,Gust SpeedMPH,PrecipitationIn,Events,Conditions,WindDirDegrees,DateUTC
12:16 AM,19.4,-4.0,36,30.06,10.0,South,3.5,-,N/A,,Clear,180,2012-12-29 07:16:00
12:36 AM,17.6,-2.2,42,30.06,10.0,SW,3.5,-,N/A,,Clear,220,2012-12-29 07:36:00
12:56 AM,17.6,-4.0,38,30.06,10.0,WSW,5.8,-,N/A,,Clear,250,2012-12-29 07:56:00
1:16 AM,21.2,-5.8,30,30.05,10.0,West,3.5,-,N/A,,Clear,280,2012-12-29 08:16:00
1:36 AM,15.8,-4.0,41,30.06,10.0,WSW,3.5,-,N/A,,Clear,240,2012-12-29 08:36:00
1:56 AM,15.8,-0.4,49,30.06,10.0,Calm,Calm,-,N/A,,Clear,0,2012-12-29 08:56:00
2:16 AM,17.6,3.2,53,30.08,10.0,Calm,Calm,-,N/A,,Clear,0,2012-12-29 09:16:00
2:36 AM,17.6,-2.2,42,30.08,10.0,SW,3.5,-,N/A,,Clear,230,2012-12-29 09:36:00
2:56 AM,17.6,-4.0,38,30.08,10.0,Calm,Calm,-,N/A,,Clear,0,2012-12-29 09:56:00
3:16 AM,19.4,-4.0,36,30.08,10.0,Calm,Calm,-,N/A,,Clear,0,2012-12-29 10:16:00
3:36 AM,17.6,-4.0,38,30.07,10.0,Calm,Calm,-,N/A,,Clear,0,2012-12-29 10:36:00
3:55 AM,17.6,-4.0,38,30.07,10.0,SSE,3.5,-,N/A,,Clear,150,2012-12-29 10:55:00
4:16 AM,14.0,-0.4,53,30.08,10.0,Calm,Calm,-,N/A,,Clear,0,2012-12-29 11:16:00
4:36 AM,19.4,-4.0,36,30.06,10.0,WNW,3.5,-,N/A,,Clear,290,2012-12-29 11:36:00
4:56 AM,17.6,-4.0,38,30.07,10.0,West,4.6,-,N/A,,Clear,270,2012-12-29 11:56:00
6:05 AM,15.8,-4.0,41,30.09,30.0,Calm,Calm,-,N/A,,Clear,0,2012-12-29 13:05:00
6:55 AM,15.8,-4.0,41,30.09,30.0,Calm,Calm,-,N/A,,Clear,0,2012-12-29 13:55:00
7:50 AM,17.6,-5.8,35,30.09,30.0,Calm,Calm,-,N/A,,Partly Cloudy,0,2012-12-29 14:50:00
8:47 AM,19.4,-0.4,42,30.11,30.0,Calm,Calm,-,N/A,,Partly Cloudy,0,2012-12-29 15:47:00
9:52 AM,23.0,-0.4,36,30.12,30.0,Calm,Calm,-,N/A,,Scattered Clouds,0,2012-12-29 16:52:00
10:48 AM,24.8,1.4,36,30.10,30.0,Variable,3.5,-,N/A,,Mostly Cloudy,0,2012-12-29 17:48:00
11:51 AM,28.4,-0.4,29,30.06,40.0,Calm,Calm,-,N/A,,Mostly Cloudy,0,2012-12-29 18:51:00
12:47 PM,28.4,1.4,31,30.03,40.0,Calm,Calm,-,N/A,,Mostly Cloudy,0,2012-12-29 19:47:00
1:47 PM,30.2,3.2,32,30.00,40.0,North,5.8,-,N/A,,Mostly Cloudy,350,2012-12-29 20:47:00
2:46 PM,28.4,3.2,34,30.00,40.0,NNW,5.8,-,N/A,,Mostly Cloudy,340,2012-12-29 21:46:00
3:47 PM,26.6,5.0,40,29.98,40.0,North,6.9,-,N/A,,Mostly Cloudy,360,2012-12-29 22:47:00
4:51 PM,23.0,5.0,46,29.97,40.0,NNW,5.8,-,N/A,,Mostly Cloudy,330,2012-12-29 23:51:00
6:47 PM,19.4,1.4,46,29.94,30.0,Calm,Calm,-,N/A,,Mostly Cloudy,0,2012-12-30 01:47:00
7:48 PM,44.6,1.4,17,29.91,30.0,West,3.5,-,N/A,,Mostly Cloudy,280,2012-12-30 02:48:00
8:46 PM,19.4,1.4,46,29.90,30.0,Calm,Calm,-,N/A,,Mostly Cloudy,0,2012-12-30 03:46:00
9:48 PM,19.4,3.2,49,29.88,30.0,West,3.5,-,N/A,,Scattered Clouds,280,2012-12-30 04:48:00
10:15 PM,21.2,5.0,50,29.89,10.0,Calm,Calm,-,N/A,,Clear,0,2012-12-30 05:15:00
10:36 PM,21.2,3.2,46,29.89,10.0,Calm,Calm,-,N/A,,Clear,0,2012-12-30 05:36:00
10:56 PM,21.2,1.4,42,29.89,10.0,Calm,Calm,-,N/A,,Clear,0,2012-12-30 05:56:00
11:16 PM,21.2,-0.4,39,29.88,10.0,Calm,Calm,-,N/A,,Clear,0,2012-12-30 06:16:00
11:36 PM,23.0,-0.4,36,29.87,10.0,NW,3.5,-,N/A,,Clear,310,2012-12-30 06:36:00
11:56 PM,23.0,-0.4,36,29.87,10.0,NW,4.6,-,N/A,,Clear,320,2012-12-30 06:56:00